[[{"header":{"parameterUnit":"m.s-1","parameterCategory":1,"la1":30.2991,"la2":30.254,"lo1":-89.0895,"lo2":-89.0444,"dy":0.0017,"dx":0.0017,"nx":28,"ny":28,"refTime":"2024-09-02T03:00:00:Z","depth":0,"parameterNumber":2,"parameterNumberName":"U-component_of_WINDS"},"data":[0,0,0,0,0,0,0,0,0,0,0,0,0,0,0,0,0,0,0,0,0,0,0,0,0,0,0,0,0,0,0,0,0,0,0,0,0,0,0,0,0,0,0,0,0,0,0,0,0,0,0,0,0,0,0,0,0,0,0.2044,0.2047,0,0.2358,0.2361,0.2365,0.2524,0.2524,0.2524,0.2524,0.286,0.2868,0.2877,0,0,0,0,0,0,0,0,0,0,0,0,0,0.1593,0.1601,0.2043,0.2047,0.2051,0.2357,0.2362,0.2366,0.2524,0.2524,0.2524,0.2524,0.2857,0.2867,0.2878,0,0,0,0,0,0,0,0,0,0,0,0,0,0.1836,0.1603,0.2043,0.2167,0.2181,0.2356,0.2362,0.2367,0.2524,0.2524,0.2524,0.2524,0.2853,0.2866,0.288,0.296,0,0,0.292,0.2926,0,0,0,0,0,0,0,0,0.1822,0.1853,0.2145,0.2159,0.2175,0.2402,0.2326,0.2566,0.2524,0.2394,0.2524,0.2524,0.2708,0.2733,0.2793,0.2976,0.299,0.2921,0.2929,0.2935,0.2939,0,0,0,0,0,0,0,0.1805,0.184,0.2169,0.2149,0.2167,0.2211,0.2245,0.2372,0.2548,0.2406,0.2418,0.2452,0.2717,0.2779,0.2802,0.2995,0.2921,0.2933,0.2941,0.2946,0.3259,0.3259,0,0,0,0,0,0,0.1767,0.1825,0.2159,0.2178,0.1995,0.2219,0.2258,0.2329,0.2546,0.2579,0.2452,0.2458,0.2757,0.2786,0.2814,0.2922,0.2935,0.2948,0.2955,0.3259,0.3259,0.3259,0,0,0,0,0,0,0.1756,0.1795,0.2146,0.2005,0.2053,0.2226,0.2305,0.2335,0.2398,0.2581,0.2614,0.2483,0.2758,0.2795,0.2921,0.2936,0.2954,0.2966,0.3258,0.3259,0.3259,0.3138,0,0,0,0,0,0,0.1743,0.179,0.182,0.2004,0.2059,0.2244,0.2306,0.2341,0.2419,0.2431,0.2619,0.2651,0.2761,0.29,0.2934,0.2955,0.2976,0.3258,0.3258,0.3259,0.3141,0.3134,0.3128,0,0,0,0,0,0.1726,0.1776,0.182,0.186,0.2099,0.2244,0.2277,0.2398,0.2419,0.2452,0.257,0.2645,0.2928,0.2912,0.2952,0.2976,0.3257,0.3258,0.3259,0.3144,0.3135,0.3128,0,0,0,0,0,0,0.1596,0.1803,0.1854,0.1965,0.2084,0.227,0.2316,0.2385,0.2506,0.2512,0.2663,0.2704,0.2816,0.2909,0.2887,0.3065,0.31,0.3109,0.3,0.2993,0.2986,0.2962,0.2987,0,0,0,0,0,0.1578,0.1674,0.1852,0.1933,0.199,0.2141,0.221,0.2292,0.2425,0.2478,0.2605,0.2734,0.2853,0.2928,0.3047,0.3155,0.3199,0.3191,0.3184,0.3178,0.3184,0.3248,0.3246,0.3262,0.3262,0.3262,0,0,0.1547,0.1672,0.1724,0.191,0.2013,0.2112,0.2184,0.2287,0.2363,0.2496,0.2621,0.2717,0.2872,0.2988,0.3046,0.307,0.3189,0.3179,0.3172,0.3183,0.3248,0.3247,0.3245,0.3262,0.3262,0.3262,0,0,0.1539,0.1642,0.172,0.182,0.1972,0.2072,0.209,0.2265,0.2333,0.246,0.256,0.2655,0.2856,0.2961,0.3041,0.3069,0.3143,0.3104,0.307,0.313,0.3129,0.3128,0.3139,0.3141,0.3109,0.3109,0.3109,0,0.1482,0.163,0.1753,0.1848,0.1927,0.2045,0.2127,0.222,0.2406,0.2459,0.2481,0.2733,0.2846,0.2988,0.2994,0.3055,0.3083,0.3084,0.3118,0.3119,0.3121,0.3132,0.3136,0.3103,0.3104,0.3105,0.3105,0,0.1553,0.1654,0.17,0.1868,0.1953,0.2041,0.218,0.2252,0.2326,0.2425,0.2552,0.2691,0.2839,0.2879,0.2956,0.3032,0.3041,0.3088,0.3128,0.3111,0.3125,0.313,0.3095,0.3097,0.3099,0.31,0,0,0.1475,0.1706,0.1721,0.1799,0.1974,0.2057,0.2151,0.2291,0.2349,0.2473,0.2557,0.2722,0.2765,0.2856,0.2945,0.2997,0.301,0.3039,0.3045,0.3029,0.3104,0.3067,0.307,0.3059,0.306,0.3061,0.3091,0,0.1493,0.1661,0.1772,0.1898,0.1994,0.2106,0.2189,0.2307,0.2401,0.2499,0.2606,0.2719,0.2768,0.2823,0.288,0.2996,0.3027,0.2996,0.3142,0.3146,0.31,0.3078,0.3041,0.3062,0.3097,0.3098,0.3099,0,0.1537,0.1649,0.1783,0.1945,0.199,0.2061,0.2197,0.2288,0.2425,0.249,0.2588,0.2677,0.2784,0.2812,0.2962,0.2938,0.3005,0.307,0.3074,0.3094,0.3122,0.3098,0.3072,0.3075,0.3108,0.3107,0.3107,0,0.1466,0.1653,0.1757,0.182,0.2011,0.2058,0.2141,0.2277,0.2353,0.2474,0.2525,0.2658,0.2731,0.2833,0.2957,0.2966,0.3095,0.3134,0.3155,0.3151,0.3179,0.3176,0.3164,0.3219,0.3219,0.3219,0.3219,0,0.1475,0.1553,0.1727,0.1791,0.1882,0.201,0.2097,0.2191,0.231,0.2397,0.2504,0.2583,0.2741,0.2841,0.2939,0.3049,0.3082,0.3139,0.3165,0.313,0.3123,0.3177,0.318,0.322,0.322,0.3219,0.3219,0,0.1413,0.1532,0.1653,0.1821,0.1866,0.1925,0.2073,0.2141,0.2238,0.2346,0.238,0.2535,0.2658,0.279,0.296,0.3025,0.3131,0.3166,0.3083,0.3097,0.3111,0.3108,0.3135,0.3145,0.3191,0.319,0.3189,0,0.1411,0.1473,0.1646,0.1708,0.1786,0.1887,0.1963,0.2092,0.2168,0.2326,0.2375,0.2505,0.2616,0.2807,0.2938,0.3068,0.3108,0.3108,0.3129,0.3092,0.3109,0.3104,0.3111,0.3103,0.3101,0.31,0.31,0,0.1395,0.145,0.1553,0.1676,0.1762,0.1867,0.1977,0.2023,0.2174,0.2254,0.2378,0.2463,0.2632,0.2761,0.2905,0.2996,0.3074,0.3091,0.3103,0.307,0.3019,0.3047,0.3066,0.3091,0.3092,0.3093,0.3093,0.3093,0.1365,0.1424,0.1553,0.1664,0.1758,0.1857,0.1928,0.2032,0.2135,0.228,0.235,0.2474,0.2609,0.2811,0.2898,0.2999,0.3024,0.3041,0.3046,0.3048,0.3039,0.3,0.3027,0.3027,0.3027,0.3028,0.3028,0,0.1355,0.1442,0.1542,0.1688,0.1776,0.1834,0.1958,0.2029,0.2134,0.2251,0.2355,0.2497,0.2621,0.2759,0.2892,0.2947,0.2986,0.2978,0.2976,0.2996,0.301,0.2986,0.2944,0.2944,0.2944,0.2944,0.2944,0.2944,0.136,0.1462,0.1531,0.1682,0.1771,0.1888,0.1953,0.2046,0.2139,0.2291,0.2392,0.2479,0.2605,0.2748,0.2865,0.2903,0.2947,0.2929,0.2977,0.2988,0.2995,0.3001,0.298,0.2937,0.2937,0.2955,0.2955,0.2955]},{"header":{"parameterUnit":"m.s-1","parameterCategory":1,"la1":30.2991,"la2":30.254,"lo1":-89.0895,"lo2":-89.0444,"dy":0.0017,"dx":0.0017,"nx":28,"ny":28,"refTime":"2024-09-02T03:00:00:Z","depth":0,"parameterNumber":3,"parameterNumberName":"V-component_of_WINDS"},"data":[0,0,0,0,0,0,0,0,0,0,0,0,0,0,0,0,0,0,0,0,0,0,0,0,0,0,0,0,0,0,0,0,0,0,0,0,0,0,0,0,0,0,0,0,0,0,0,0,0,0,0,0,0,0,0,0,0,0,2.4559,2.4559,0,2.4523,2.4522,2.4522,2.4546,2.4547,2.4549,2.455,2.4507,2.4504,2.4502,0,0,0,0,0,0,0,0,0,0,0,0,0,2.4644,2.4642,2.456,2.4559,2.4559,2.4523,2.4522,2.4522,2.4546,2.4547,2.4549,2.455,2.4507,2.4505,2.4502,0,0,0,0,0,0,0,0,0,0,0,0,0,2.4607,2.4642,2.456,2.4566,2.4567,2.4523,2.4522,2.4522,2.4546,2.4547,2.4549,2.4551,2.4508,2.4505,2.4502,2.4447,0,0,2.4492,2.449,0,0,0,0,0,0,0,0,2.4609,2.4604,2.4566,2.4566,2.4566,2.4541,2.4536,2.4497,2.4545,2.4554,2.455,2.4552,2.4516,2.4512,2.4502,2.4445,2.4444,2.4491,2.4489,2.4488,2.4487,0,0,0,0,0,0,0,2.4612,2.4606,2.4545,2.4565,2.4565,2.4569,2.4566,2.4529,2.4526,2.4553,2.4555,2.455,2.4517,2.4505,2.4501,2.4443,2.4491,2.4488,2.4486,2.4485,2.4338,2.4336,0,0,0,0,0,0,2.4614,2.4608,2.4546,2.4544,2.4592,2.4566,2.4563,2.4547,2.4526,2.4525,2.4549,2.4552,2.451,2.4505,2.4499,2.4433,2.4488,2.4485,2.4483,2.4339,2.4337,2.4335,0,0,0,0,0,0,2.4616,2.4609,2.4548,2.4576,2.4569,2.4563,2.4546,2.4546,2.4534,2.4523,2.4522,2.4538,2.4511,2.4504,2.446,2.4432,2.4483,2.448,2.4342,2.4339,2.4336,2.4301,0,0,0,0,0,0,2.4619,2.4609,2.459,2.4576,2.4567,2.4511,2.4544,2.4544,2.4529,2.4532,2.4513,2.4511,2.4512,2.4465,2.4457,2.4428,2.4478,2.4344,2.434,2.4337,2.4304,2.4297,2.4291,0,0,0,0,0,2.4622,2.4581,2.4589,2.4582,2.4544,2.4509,2.4504,2.4507,2.4527,2.4506,2.4499,2.4511,2.4436,2.446,2.4451,2.4421,2.4346,2.4342,2.4337,2.4307,2.4298,2.4291,0,0,0,0,0,0,2.4591,2.4579,2.4588,2.4543,2.4527,2.4513,2.4488,2.4498,2.4475,2.4479,2.4482,2.4477,2.4431,2.4422,2.4448,2.4366,2.4394,2.4388,2.4374,2.4366,2.4359,2.4362,2.4475,0,0,0,0,0,2.458,2.4555,2.4545,2.4505,2.4497,2.4494,2.4479,2.4483,2.4466,2.4459,2.4448,2.443,2.4402,2.4383,2.4357,2.4303,2.4298,2.4278,2.4271,2.4266,2.426,2.4228,2.4219,2.4321,2.4321,2.4321,0,0,2.4555,2.4545,2.4529,2.4499,2.4487,2.4459,2.4488,2.4457,2.4436,2.4453,2.4412,2.4403,2.4382,2.4332,2.431,2.4323,2.423,2.426,2.4256,2.4253,2.4223,2.4213,2.4205,2.4318,2.4318,2.4319,0,0,2.4495,2.4486,2.4451,2.4439,2.4421,2.4419,2.441,2.4395,2.439,2.4349,2.4361,2.4334,2.4286,2.427,2.4256,2.4188,2.4198,2.4179,2.4143,2.4112,2.4104,2.4097,2.4071,2.4062,2.4173,2.4173,2.4173,0,2.4466,2.4426,2.4432,2.44,2.4385,2.4401,2.4364,2.4351,2.4325,2.4313,2.4329,2.4269,2.4256,2.4202,2.4185,2.4173,2.4162,2.4181,2.4105,2.4098,2.4092,2.4067,2.4057,2.4171,2.4171,2.4172,2.4172,0,2.439,2.4362,2.4335,2.4311,2.4293,2.4259,2.4257,2.4238,2.4243,2.4238,2.4193,2.4179,2.4149,2.4136,2.414,2.4082,2.409,2.4106,2.4133,2.408,2.4056,2.4047,2.4168,2.4169,2.4169,2.417,0,0,2.4312,2.429,2.428,2.4268,2.4249,2.4226,2.4191,2.4163,2.4146,2.4126,2.4096,2.4054,2.4068,2.4051,2.4053,2.4026,2.3971,2.4044,2.4044,2.403,2.3903,2.3892,2.3881,2.3978,2.3976,2.3974,2.3905,0,2.425,2.4192,2.4194,2.4138,2.4111,2.4124,2.4094,2.4077,2.4071,2.4045,2.4038,2.4008,2.4029,2.4019,2.3993,2.3983,2.3945,2.3988,2.3947,2.3945,2.3951,2.3869,2.3857,2.3792,2.3896,2.3894,2.3893,0,2.4171,2.415,2.4091,2.4074,2.4063,2.4035,2.4009,2.3985,2.3965,2.3962,2.3943,2.3949,2.3911,2.3939,2.3886,2.3915,2.3898,2.389,2.3888,2.3883,2.3916,2.3862,2.3772,2.3762,2.3879,2.388,2.3881,0,2.4118,2.4075,2.4034,2.4023,2.4003,2.3983,2.3972,2.3955,2.3937,2.3913,2.3901,2.3872,2.3856,2.3833,2.383,2.3851,2.3775,2.3804,2.377,2.377,2.3753,2.3754,2.3659,2.3743,2.3743,2.3743,2.3744,0,2.4049,2.4012,2.401,2.3985,2.3943,2.3945,2.3903,2.3895,2.3878,2.385,2.3859,2.3831,2.3829,2.38,2.3797,2.3752,2.3745,2.374,2.3739,2.3739,2.3739,2.3727,2.3732,2.3741,2.3741,2.3742,2.3742,0,2.3983,2.3981,2.3937,2.392,2.3915,2.3885,2.3869,2.3844,2.3838,2.3802,2.3793,2.3784,2.375,2.3744,2.3704,2.3702,2.3648,2.3652,2.3655,2.3655,2.3621,2.3624,2.3514,2.3499,2.3594,2.3593,2.3592,0,2.394,2.3912,2.3892,2.3874,2.3863,2.3835,2.3817,2.3817,2.3797,2.3771,2.3748,2.3715,2.369,2.3634,2.3622,2.3591,2.3594,2.3558,2.3589,2.3589,2.3592,2.3594,2.359,2.3551,2.355,2.355,2.3549,0,2.3862,2.3861,2.3836,2.3809,2.3787,2.3766,2.3746,2.373,2.3727,2.3704,2.367,2.365,2.3609,2.3575,2.3544,2.3531,2.3538,2.3539,2.3529,2.3528,2.3531,2.3528,2.3638,2.3542,2.3542,2.3543,2.3543,2.3544,2.3805,2.378,2.3762,2.3733,2.3718,2.3698,2.3673,2.3664,2.3636,2.3604,2.3604,2.3567,2.3545,2.3503,2.3488,2.3457,2.3469,2.3455,2.3451,2.3448,2.3444,2.3536,2.3451,2.3451,2.3452,2.3452,2.3452,0,2.3727,2.3716,2.3689,2.366,2.3636,2.3646,2.3624,2.3603,2.357,2.3549,2.3523,2.3483,2.345,2.3435,2.3402,2.3379,2.3382,2.3371,2.3372,2.3369,2.3436,2.3447,2.3369,2.3369,2.3369,2.3369,2.3369,2.3369,2.3684,2.3642,2.3639,2.3588,2.3576,2.354,2.3526,2.3507,2.3491,2.3446,2.3419,2.3409,2.339,2.3355,2.3325,2.3321,2.3308,2.3295,2.3292,2.3356,2.3364,2.3372,2.3383,2.3292,2.3292,2.3227,2.3227,2.3226]}]]